Date,TemperatureHighF,TemperatureAvgF,TemperatureLowF,DewpointHighF,DewpointAvgF,DewpointLowF,HumidityHigh,HumidityAvg,HumidityLow,PressureMaxIn,PressureMinIn,WindSpeedMaxMPH,WindSpeedAvgMPH,GustSpeedMaxMPH,PrecipitationSumIn
2013-3-1,74.9,61.1,50.8,52.9,48.6,44.8,87,65,41,30.31,30.12,6,0,6,0.00
2013-3-2,74.0,58.8,48.3,55.3,49.1,40.4,100,73,34,30.13,30.00,10,0,10,0.00
2013-3-3,59.3,53.0,48.5,54.8,51.1,48.5,100,94,77,30.03,29.96,10,1,10,0.00
2013-3-4,57.8,50.2,44.8,50.3,48.2,44.5,100,93,74,30.07,29.98,12,1,12,0.00
2013-3-5,55.9,50.4,47.7,48.5,45.5,43.0,99,84,67,30.05,29.97,10,1,10,0.00
2013-3-6,55.0,49.1,42.2,53.5,48.1,41.9,100,97,81,30.04,29.94,14,1,14,0.41
2013-3-7,56.6,47.8,40.9,50.2,45.1,40.9,100,91,68,29.95,29.76,6,0,6,0.21
2013-3-8,54.5,47.8,43.8,49.9,45.6,41.1,100,92,81,30.03,29.72,22,1,22,0.06
2013-3-9,58.1,47.9,36.6,50.2,44.0,36.4,100,87,58,30.23,30.03,11,0,11,0.00
2013-3-10,60.4,48.6,38.2,52.8,46.3,38.2,100,92,71,30.27,30.17,10,0,10,0.00
2013-3-11,66.0,49.4,36.5,54.2,45.0,36.5,100,87,52,30.17,30.02,7,0,7,0.01
2013-3-12,65.0,50.3,37.6,55.4,47.5,37.6,100,91,61,30.05,29.98,8,0,8,0.00
2013-3-13,75.4,52.1,41.3,58.2,48.6,41.3,100,90,42,30.06,30.00,11,0,11,0.00
2013-3-14,65.5,50.1,42.6,57.4,48.9,42.6,100,96,71,30.07,29.99,11,0,11,0.01
2013-3-15,73.0,54.8,45.7,57.2,50.9,45.7,100,88,50,30.00,29.91,7,0,7,0.00
2013-3-16,67.8,52.2,45.4,57.3,49.8,45.3,100,92,66,29.99,29.92,10,0,10,0.01
2013-3-17,68.3,52.7,44.1,53.8,48.2,43.9,100,86,53,30.00,29.94,11,1,11,0.00
2013-3-18,69.3,50.6,36.5,52.0,45.7,36.5,100,86,45,30.03,29.93,7,0,7,0.00
2013-3-19,73.2,55.4,45.1,53.5,49.1,41.6,100,82,35,30.06,29.97,13,1,13,0.01
2013-3-20,67.1,54.9,47.3,52.9,49.0,40.6,100,82,49,30.05,29.98,11,0,11,0.01
2013-3-21,59.9,50.1,40.9,53.5,46.9,40.9,100,90,70,30.00,29.88,12,1,12,0.00
2013-3-22,66.9,51.6,39.9,49.6,43.5,27.2,100,77,34,29.95,29.88,10,1,10,0.01
2013-3-23,70.4,55.4,41.1,47.4,37.7,25.1,98,56,23,30.01,29.93,11,1,11,0.00
2013-3-24,66.8,50.0,36.8,50.0,44.2,36.6,100,84,39,29.99,29.88,10,0,10,0.00
2013-3-25,68.9,48.4,36.9,54.6,45.4,36.9,100,91,56,29.92,29.86,6,0,9,0.00
2013-3-26,59.9,50.0,43.6,50.6,47.3,43.6,100,91,69,29.94,29.88,11,0,11,0.00
2013-3-27,61.3,51.8,42.6,54.4,50.0,42.6,100,94,75,29.99,29.88,11,0,11,0.00
2013-3-28,64.3,54.9,47.7,55.8,52.8,47.7,100,93,73,30.02,29.95,9,0,9,0.00
2013-3-29,63.4,52.5,42.6,55.2,50.2,42.6,100,93,73,30.04,29.97,10,1,10,0.00
2013-3-30,65.8,55.5,50.1,55.3,52.6,50.1,100,91,66,30.05,29.97,9,1,9,0.31
2013-3-31,65.5,56.6,52.5,58.6,54.7,52.5,100,94,69,30.04,29.99,11,0,11,0.02